Location: Joplin, MO
(37.0842°N, 94.5133°W)
Time: 17:52:33
(UTC+01:00)

ISS - Visible Passes

Search period start: 08 December 2022 00:00
Search period end: 18 December 2022 00:00
Orbit: 414 x 420 km, 51.6° (Epoch: 08 December)

Date Brightness Start Highest point End Pass type
(mag) Time Alt. Az. Time Alt. Az. Time Alt. Az.
08 Dec -1.1 01:41:30 10° W 01:44:04 21° SW 01:46:38 10° S visible
09 Dec -2.2 00:52:52 10° WNW 00:56:00 38° SW 00:59:06 10° SSE visible
11 Dec -0.2 00:54:35 10° WSW 00:55:59 12° SW 00:57:24 10° SSW visible
14 Dec 0.4 13:36:09 10° SE 13:36:12 10° SE 13:36:14 10° SE visible
16 Dec -1.7 13:32:57 10° SSW 13:35:58 31° SE 13:38:59 10° ENE visible
17 Dec -0.7 12:45:29 10° S 12:47:46 17° SE 12:50:03 10° E visible
